Regional Weather Roundup
Issued by NWS

Home | Current Version | Previous Version | Graphics & Text | Print | Product List | Glossary On
Versions: 1 2 3 4 5 6 7 8 9 10 11 12 13 14 15 16 17 18 19 20 21 22 23 24 25 26 27 28 29 30 31 32 33 34 35 36 37 38 39 40 41 42 43 44 45 46 47 48 49 50
000
ASUS45 KABQ 031710
RWRNM
NEW MEXICO REGIONAL WEATHER ROUNDUP
NATIONAL WEATHER SERVICE ALBUQUERQUE NM
1100 AM MDT MON AUG 03 2015

NOTE: "FAIR" MEANS FEW OR NO CLOUDS BELOW 12,000 FEET AGL WITH NO
       SIGNIFICANT WEATHER OR OBSTRUCTIONS TO VISION.

      THIS PRODUCT IS RELEASED AS TWO VERSIONS.  ONE VERSION NEAR
      THE TOP OF THE HOUR CONTAINING PRELIMINARY DATA FROM ALBUQUERQUE
      AND OTHER STATIONS.  A FINAL VERSION WITH ADDITIONAL DATA IS
      ISSUED ABOUT 10 MINUTES AFTER THE HOUR.

NMZ501-503-504-510>518-031800-
NORTHWEST PLATEAU/NORTHCENTRAL MOUNTAINS

CITY           SKY/WX    TMP DP  RH WIND       PRES   REMARKS
FARMINGTON     SUNNY     71  57  61 SE7       30.21R
LOS ALAMOS     SUNNY     67  57  72 NE7       30.30S
SANTA FE       MOSUNNY   71  55  56 CALM      30.23S
TAOS           PTSUNNY   66  48  52 CALM      30.30S
ANGEL FIRE     FAIR      64  51  62 W12G21    30.35S

$$
NMZ402-403-502-505>509-031800-
WESTCENTRAL MOUNTAINS/SOUTHWEST MOUNTAINS

CITY           SKY/WX    TMP DP  RH WIND       PRES   REMARKS
GALLUP         SUNNY     72  55  55 SW3       30.27S
GRANTS         SUNNY     69  59  72 N7        30.29S
SILVER CITY      N/A     81  55  41 S5        30.21S

$$
NMZ407-409-411-412-031800-
SOUTHERN DESERTS

CITY           SKY/WX    TMP DP  RH WIND       PRES   REMARKS
LORDSBURG      FAIR      82  57  42 CALM      30.11S
DEMING         MOSUNNY   82  59  45 CALM      30.12S
LAS CRUCES     MOSUNNY   81  61  50 CALM      30.14S
HOLLOMAN AFB   PTSUNNY   86  59  39 SW5       30.07S
ALAMOGORDO     MOSUNNY   82  59  44 S3        30.10S
T OR C         MOSUNNY   82  59  45 E6        30.14S

$$
NMZ519>523-031800-
CENTRAL VALLEYS/CENTRAL HIGHLANDS

CITY           SKY/WX    TMP DP  RH WIND       PRES   REMARKS
ALBUQUERQUE    MOSUNNY   75  57  53 SW5       30.20S
DOUBLE EAGLE   MOSUNNY   75  55  50 W8        30.22F
MORIARTY ARPT    N/A     76  51  40 W10       30.23S
CLINES CORNERS MOSUNNY   72  55  55 NW15      30.26R
BELEN          FAIR      78  53  41 W5        30.18S
SOCORRO        FAIR      77  59  54 N7        30.16S

$$
NMZ524>526-539-540-031800-
SOUTHCENTRAL MOUNTAINS

CITY           SKY/WX    TMP DP  RH WIND       PRES   REMARKS
RUIDOSO          N/A    N/A N/A N/A MISG        N/A

$$
NMZ527>531-031800-
NORTHEAST HIGHLANDS/NORTHEAST PLAINS

CITY           SKY/WX    TMP DP  RH WIND       PRES   REMARKS
RATON          NOT AVBL
CLAYTON        PTSUNNY   81  61  50 W5        30.09R

$$
NMZ532>537-031800-
EASTCENTRAL PLAINS

CITY           SKY/WX    TMP DP  RH WIND       PRES   REMARKS
TUCUMCARI      MOSUNNY   77  64  64 VRB5      30.05S
CANNON AFB     MOSUNNY   79  64  60 S7        30.08R
CLOVIS AIRPORT PTSUNNY   81  63  54 S7        30.09S

$$
NMZ028-029-538-031800-
SOUTHEAST PLAINS

CITY           SKY/WX    TMP DP  RH WIND       PRES   REMARKS
ROSWELL        PTSUNNY   86  63  45 N5        30.04R
ARTESIA        PTSUNNY   86  63  45 CALM      30.04S
CARLSBAD       PTSUNNY   87  63  44 W8        30.01S
HOBBS          SUNNY     84  61  45 SE16      30.05S


$$


USA.gov is the U.S. government's official web portal to all federal, state and local government web resources and services.